User: anonymous
Location: Unspecified
(0.0000°N, 0.0000°E)
Time: 21:17:37
(UTC+02:00)
Language:

Ariane H10 - Orbit

View from above orbital plane
View from above orbital plane
View from above satellite
View from above satellite

Ground track
Ground track

The orbit data is extracted from the following two-line orbital elements,

1 19622U 88098B   14114.44240999  .00019730  00000-0  34829-2 0  7362
2 19622 003.9296 218.6851 6493625 152.3349 267.0631 03.33472170265169
Epoch (UTC): 24 April 2014 10:37:04
Eccentricity: 0.6493625
inclination: 3.9296°
perigee height: 257 km
apogee height: 24835 km
right ascension of ascending node: 218.6851°
argument of perigee: 152.3349°
revolutions per day: 3.33472170
mean anomaly at epoch: 267.0631°
orbit number at epoch: 26516

The dashed part of the orbit path shows where the satellite is in the earth's shadow,  

DLR